,,Stat6,,Stat2,,Stat8,,Stat9,,Stat10,,Wind1,,Wind1,
time,status,PA1M_AVG,status,PR1M_SUM,status,RH1M_AVG,status,SR1M_AVG,status,TA1M_AVG,status,W1dAve1m,status,W1sAve1m,
2004-03-07, 00:00:01,VALID,918.229,VALID,0,VALID,86.3407,VALID,-0.0679233,VALID,21.2555,VALID,68,VALID,2.5984,
2004-03-07, 00:01:00,VALID,918.214,VALID,0,VALID,86.2275,VALID,-0.118866,VALID,21.3045,VALID,102,VALID,2.47866,
2004-03-07, 00:02:00,VALID,918.214,VALID,0,VALID,86.3928,VALID,-0.101885,VALID,21.3473,VALID,93,VALID,2.36076,
2004-03-07, 00:03:00,VALID,918.195,VALID,0,VALID,86.5123,VALID,-0.101885,VALID,21.3242,VALID,121,VALID,3.08523,
2004-03-07, 00:04:00,VALID,918.215,VALID,0,VALID,86.9371,VALID,-0.101885,VALID,21.315,VALID,108,VALID,2.58445,
2004-03-07, 00:05:00,VALID,918.147,VALID,0,VALID,87.2524,VALID,-0.101885,VALID,21.2598,VALID,63,VALID,3.20499,
2004-03-07, 00:06:00,VALID,918.151,VALID,0,VALID,87.5614,VALID,-0.118866,VALID,21.2114,VALID,77,VALID,2.97438,
2004-03-07, 00:07:00,VALID,918.163,VALID,0,VALID,87.7738,VALID,-0.118866,VALID,21.1796,VALID,82,VALID,2.00911,
2004-03-07, 00:08:00,VALID,918.129,VALID,0,VALID,88.318,VALID,-0.101885,VALID,21.1406,VALID,47,VALID,1.92913,
2004-03-07, 00:09:00,VALID,918.113,VALID,0,VALID,88.6321,VALID,-0.0849042,VALID,21.0886,VALID,122,VALID,1.74809,
2004-03-07, 00:10:00,VALID,918.075,VALID,0,VALID,88.7313,VALID,-0.101885,VALID,21.0369,VALID,102,VALID,3.0932,
2004-03-07, 00:11:01,VALID,918.059,VALID,0,VALID,88.697,VALID,-0.101885,VALID,20.9912,VALID,76,VALID,3.28553,
2004-03-07, 00:12:01,VALID,918.069,VALID,0,VALID,88.7669,VALID,-0.101885,VALID,20.9917,VALID,83,VALID,3.2793,
2004-03-07, 00:13:01,VALID,918.04,VALID,0,VALID,89.0886,VALID,-0.101885,VALID,20.982,VALID,69,VALID,2.26086,
2004-03-07, 00:14:01,VALID,918.026,VALID,0,VALID,89.2298,VALID,-0.118866,VALID,20.9432,VALID,76,VALID,3.10398,
2004-03-07, 00:15:01,VALID,918.031,VALID,0,VALID,89.3379,VALID,-0.101885,VALID,20.9109,VALID,108,VALID,2.14901,
2004-03-07, 00:16:00,VALID,917.972,VALID,0,VALID,89.5782,VALID,-0.101885,VALID,20.895,VALID,69,VALID,3.13608,
2004-03-07, 00:17:01,VALID,917.953,VALID,0,VALID,89.7473,VALID,-0.118866,VALID,20.8627,VALID,110,VALID,2.06101,
2004-03-07, 00:18:00,VALID,917.929,VALID,0,VALID,90.0512,VALID,-0.118866,VALID,20.8496,VALID,61,VALID,1.52715,
2004-03-07, 00:19:01,VALID,917.916,VALID,0,VALID,90.0703,VALID,-0.101885,VALID,20.8272,VALID,74,VALID,1.89666,
2004-03-07, 00:20:01,VALID,917.881,VALID,0,VALID,90.1135,VALID,-0.118866,VALID,20.7941,VALID,87,VALID,2.29173,
2004-03-07, 00:21:00,VALID,917.878,VALID,0,VALID,90.3895,VALID,-0.101885,VALID,20.775,VALID,101,VALID,1.38224,
2004-03-07, 00:22:00,VALID,917.852,VALID,0,VALID,90.5675,VALID,-0.101885,VALID,20.7594,VALID,84,VALID,2.81543,
2004-03-07, 00:23:01,VALID,917.804,VALID,0,VALID,90.3984,VALID,-0.101885,VALID,20.7236,VALID,74,VALID,3.8724,
2004-03-07, 00:24:00,VALID,917.832,VALID,0,VALID,89.7638,VALID,-0.0849042,VALID,20.7855,VALID,80,VALID,2.35801,
2004-03-07, 00:25:01,VALID,917.839,VALID,0,VALID,89.8325,VALID,-0.0849042,VALID,20.8232,VALID,98,VALID,2.15313,
2004-03-07, 00:26:01,VALID,917.833,VALID,0,VALID,90.1555,VALID,-0.101885,VALID,20.8404,VALID,122,VALID,2.1369,
2004-03-07, 00:27:01,VALID,917.827,VALID,0,VALID,90.3946,VALID,-0.101885,VALID,20.8014,VALID,117,VALID,3.39615,
2004-03-07, 00:28:00,VALID,917.799,VALID,0,VALID,90.5789,VALID,-0.118866,VALID,20.7631,VALID,92,VALID,2.61337,
2004-03-07, 00:29:01,VALID,917.814,VALID,0,VALID,90.8066,VALID,-0.101885,VALID,20.7206,VALID,116,VALID,2.37227,
2004-03-07, 00:30:01,VALID,917.82,VALID,0,VALID,91.0393,VALID,-0.0169808,VALID,20.701,VALID,127,VALID,2.43768,
2004-03-07, 00:31:01,VALID,917.821,VALID,0,VALID,91.1524,VALID,-0.0509425,VALID,20.6711,VALID,120,VALID,2.94438,
2004-03-07, 00:32:01,VALID,917.806,VALID,0,VALID,91.1435,VALID,-0.0169808,VALID,20.652,VALID,90,VALID,2.82184,
2004-03-07, 00:33:01,VALID,917.79,VALID,0,VALID,91.0253,VALID,-0.0169808,VALID,20.6485,VALID,72,VALID,2.74829,
2004-03-07, 00:34:01,VALID,917.812,VALID,0,VALID,91.2936,VALID,-0.0339617,VALID,20.659,VALID,108,VALID,1.499,
2004-03-07, 00:35:01,VALID,917.813,VALID,0,VALID,91.2732,VALID,-0.0339617,VALID,20.6393,VALID,99,VALID,2.74144,
2004-03-07, 00:36:01,VALID,917.807,VALID,0,VALID,91.3788,VALID,-0.0509425,VALID,20.6261,VALID,86,VALID,2.20964,
2004-03-07, 00:37:01,VALID,917.815,VALID,0,VALID,91.3279,VALID,-0.0169808,VALID,20.6192,VALID,105,VALID,2.87589,
2004-03-07, 00:38:01,VALID,917.758,VALID,0,VALID,91.5326,VALID,-0.0339617,VALID,20.6229,VALID,44,VALID,2.24637,
2004-03-07, 00:39:01,VALID,917.773,VALID,0,VALID,91.6611,VALID,0,VALID,20.61,VALID,139,VALID,1.72898,
2004-03-07, 00:40:01,VALID,917.753,VALID,0,VALID,91.7717,VALID,-0.0339617,VALID,20.5874,VALID,123,VALID,2.18109,
2004-03-07, 00:41:01,VALID,917.733,VALID,0,VALID,91.6496,VALID,-0.0339617,VALID,20.5643,VALID,116,VALID,3.12845,
2004-03-07, 00:42:01,VALID,917.71,VALID,0,VALID,91.6865,VALID,0,VALID,20.5777,VALID,104,VALID,2.2569,
2004-03-07, 00:43:01,VALID,917.671,VALID,0,VALID,91.0278,VALID,-0.0339617,VALID,20.6,VALID,99,VALID,3.88049,
2004-03-07, 00:44:01,VALID,917.664,VALID,0,VALID,90.804,VALID,0,VALID,20.6679,VALID,78,VALID,4.08067,
2004-03-07, 00:45:01,VALID,917.623,VALID,0,VALID,90.7404,VALID,-0.0169808,VALID,20.687,VALID,93,VALID,3.33861,
2004-03-07, 00:46:01,VALID,917.623,VALID,0,VALID,90.8218,VALID,0,VALID,20.6967,VALID,78,VALID,3.43407,
2004-03-07, 00:47:01,VALID,917.568,VALID,0,VALID,90.7798,VALID,0,VALID,20.6935,VALID,94,VALID,2.76062,
2004-03-07, 00:48:01,VALID,917.553,VALID,0,VALID,90.743,VALID,-0.0169808,VALID,20.684,VALID,95,VALID,2.77976,
2004-03-07, 00:49:01,VALID,917.551,VALID,0,VALID,90.762,VALID,0,VALID,20.6873,VALID,85,VALID,2.96758,
2004-03-07, 00:50:01,VALID,917.535,VALID,0,VALID,90.626,VALID,-0.0169808,VALID,20.6838,VALID,80,VALID,1.93677,
2004-03-07, 00:51:01,VALID,917.569,VALID,0,VALID,90.6349,VALID,0,VALID,20.6905,VALID,75,VALID,2.74931,
2004-03-07, 00:52:01,VALID,917.552,VALID,0,VALID,90.6756,VALID,0,VALID,20.6972,VALID,78,VALID,2.71948,
2004-03-07, 00:53:01,VALID,917.542,VALID,0,VALID,90.7226,VALID,-0.0169808,VALID,20.6969,VALID,92,VALID,2.57685,
2004-03-07, 00:54:01,VALID,917.544,VALID,0,VALID,90.6412,VALID,-0.0169808,VALID,20.6811,VALID,123,VALID,2.90062,
2004-03-07, 00:55:01,VALID,917.524,VALID,0,VALID,90.5662,VALID,-0.0339617,VALID,20.6967,VALID,98,VALID,1.92436,
2004-03-07, 00:56:01,VALID,917.542,VALID,0,VALID,90.3475,VALID,0,VALID,20.7066,VALID,103,VALID,1.69727,
2004-03-07, 00:57:01,VALID,917.537,VALID,0,VALID,90.3564,VALID,0,VALID,20.726,VALID,70,VALID,1.9613,
2004-03-07, 00:58:01,VALID,917.54,VALID,0,VALID,90.392,VALID,-0.0679233,VALID,20.7265,VALID,92,VALID,1.21458,
2004-03-07, 00:59:01,VALID,917.534,VALID,0,VALID,90.4925,VALID,-0.0339617,VALID,20.7233,VALID,150,VALID,1.16969,
2004-03-07, 01:00:01,VALID,917.533,VALID,0,VALID,90.3081,VALID,-0.0679233,VALID,20.7228,VALID,128,VALID,1.88449,
2004-03-07, 01:01:01,VALID,917.516,VALID,0,VALID,89.9228,VALID,-0.0339617,VALID,20.7459,VALID,138,VALID,2.29241,
2004-03-07, 01:02:01,VALID,917.515,VALID,0,VALID,89.9266,VALID,-0.0169808,VALID,20.7712,VALID,161,VALID,1.18731,
2004-03-07, 01:03:00,VALID,917.504,VALID,0,VALID,89.9571,VALID,-0.0509425,VALID,20.7745,VALID,123,VALID,1.69699,
2004-03-07, 01:04:00,VALID,917.489,VALID,0,VALID,90.0347,VALID,-0.0169808,VALID,20.7941,VALID,111,VALID,1.52307,
2004-03-07, 01:05:00,VALID,917.491,VALID,0,VALID,89.685,VALID,-0.0339617,VALID,20.7844,VALID,100,VALID,2.05913,
2004-03-07, 01:06:00,VALID,917.458,VALID,0,VALID,89.568,VALID,-0.0339617,VALID,20.8006,VALID,77,VALID,2.10454,
2004-03-07, 01:07:00,VALID,917.415,VALID,0,VALID,89.465,VALID,-0.0169808,VALID,20.8262,VALID,55,VALID,0.876817,
2004-03-07, 01:08:00,VALID,917.398,VALID,0,VALID,89.6608,VALID,0,VALID,20.8455,VALID,104,VALID,1.42827,
2004-03-07, 01:09:00,VALID,917.363,VALID,0,VALID,89.727,VALID,0,VALID,20.8393,VALID,137,VALID,1.74066,
2004-03-07, 01:10:00,VALID,917.334,VALID,0,VALID,89.1013,VALID,-0.0169808,VALID,20.8229,VALID,73,VALID,2.58956,
2004-03-07, 01:11:00,VALID,917.308,VALID,0,VALID,89.1306,VALID,-0.0339617,VALID,20.8579,VALID,85,VALID,2.32961,
2004-03-07, 01:12:00,VALID,917.284,VALID,0,VALID,89.1255,VALID,-0.0169808,VALID,20.8846,VALID,76,VALID,1.77511,
2004-03-07, 01:13:00,VALID,917.254,VALID,0,VALID,88.7478,VALID,0,VALID,20.8811,VALID,103,VALID,3.02798,
2004-03-07, 01:14:00,VALID,917.212,VALID,0,VALID,88.7224,VALID,-0.0169808,VALID,20.9101,VALID,115,VALID,2.16053,
2004-03-07, 01:15:00,VALID,917.216,VALID,0,VALID,89.0835,VALID,-0.0509425,VALID,20.9101,VALID,138,VALID,2.89549,
2004-03-07, 01:16:00,VALID,917.189,VALID,0,VALID,89.301,VALID,0,VALID,20.8908,VALID,134,VALID,2.22292,
2004-03-07, 01:17:00,VALID,917.194,VALID,0,VALID,89.1967,VALID,-0.0339617,VALID,20.8587,VALID,118,VALID,2.25312,
2004-03-07, 01:18:00,VALID,917.186,VALID,0,VALID,88.9411,VALID,-0.0339617,VALID,20.8555,VALID,99,VALID,1.99055,
2004-03-07, 01:19:00,VALID,917.185,VALID,0,VALID,89.0238,VALID,-0.0339617,VALID,20.8819,VALID,103,VALID,1.71875,
2004-03-07, 01:20:00,VALID,917.184,VALID,0,VALID,89.4243,VALID,-0.0169808,VALID,20.8781,VALID,122,VALID,1.31559,
2004-03-07, 01:21:00,VALID,917.176,VALID,0,VALID,89.5973,VALID,-0.0339617,VALID,20.8458,VALID,108,VALID,1.32378,
2004-03-07, 01:22:00,VALID,917.15,VALID,0,VALID,89.8033,VALID,-0.0169808,VALID,20.8237,VALID,114,VALID,1.78069,
2004-03-07, 01:23:00,VALID,917.122,VALID,0,VALID,89.1268,VALID,-0.0509425,VALID,20.7944,VALID,93,VALID,2.78888,
2004-03-07, 01:24:00,VALID,917.113,VALID,0,VALID,88.9856,VALID,-0.0509425,VALID,20.8232,VALID,97,VALID,1.66163,
2004-03-07, 01:25:00,VALID,917.088,VALID,0,VALID,88.9716,VALID,-0.0339617,VALID,20.8488,VALID,138,VALID,2.01048,
2004-03-07, 01:26:00,VALID,917.088,VALID,0,VALID,89.0428,VALID,-0.0339617,VALID,20.8622,VALID,112,VALID,1.58668,
2004-03-07, 01:27:00,VALID,917.086,VALID,0,VALID,89.2361,VALID,-0.0339617,VALID,20.8622,VALID,60,VALID,1.58223,
2004-03-07, 01:28:00,VALID,917.075,VALID,0,VALID,89.1814,VALID,-0.0339617,VALID,20.8458,VALID,90,VALID,2.08872,
2004-03-07, 01:29:00,VALID,917.051,VALID,0,VALID,88.3282,VALID,-0.0169808,VALID,20.8391,VALID,80,VALID,3.53445,
2004-03-07, 01:30:00,VALID,917.025,VALID,0,VALID,87.4533,VALID,-0.101885,VALID,20.9177,VALID,64,VALID,3.69566,
2004-03-07, 01:31:00,VALID,916.995,VALID,0,VALID,86.6738,VALID,-0.101885,VALID,20.9955,VALID,48,VALID,3.06504,
2004-03-07, 01:32:00,VALID,916.974,VALID,0,VALID,86.3674,VALID,-0.101885,VALID,21.0762,VALID,54,VALID,2.15399,
2004-03-07, 01:33:00,VALID,916.997,VALID,0,VALID,86.6433,VALID,-0.101885,VALID,21.112,VALID,56,VALID,1.9504,
2004-03-07, 01:34:00,VALID,917.016,VALID,0,VALID,86.7781,VALID,-0.118866,VALID,21.0891,VALID,102,VALID,1.3367,
2004-03-07, 01:35:00,VALID,916.978,VALID,0,VALID,87.0362,VALID,-0.118866,VALID,21.0733,VALID,100,VALID,2.62147,
2004-03-07, 01:36:00,VALID,916.953,VALID,0,VALID,87.0795,VALID,-0.118866,VALID,21.0576,VALID,69,VALID,1.96148,
2004-03-07, 01:37:00,VALID,916.947,VALID,0,VALID,86.0864,VALID,-0.101885,VALID,21.028,VALID,113,VALID,1.55712,
2004-03-07, 01:38:00,VALID,916.918,VALID,0,VALID,86.8239,VALID,-0.118866,VALID,21.0574,VALID,142,VALID,2.00491,
2004-03-07, 01:39:00,VALID,916.908,VALID,0,VALID,87.2257,VALID,-0.101885,VALID,21.0471,VALID,116,VALID,0.952553,
2004-03-07, 01:40:00,VALID,916.901,VALID,0,VALID,87.7293,VALID,-0.101885,VALID,21.0283,VALID,111,VALID,1.29055,
2004-03-07, 01:41:00,VALID,916.895,VALID,0,VALID,88.0408,VALID,-0.118866,VALID,20.9658,VALID,123,VALID,1.64539,
2004-03-07, 01:42:00,VALID,916.889,VALID,0,VALID,88.2697,VALID,-0.101885,VALID,20.9209,VALID,116,VALID,1.40573,
2004-03-07, 01:43:00,VALID,916.891,VALID,0,VALID,88.3638,VALID,-0.135847,VALID,20.8856,VALID,142,VALID,1.75479,
2004-03-07, 01:44:00,VALID,916.885,VALID,0,VALID,88.0192,VALID,-0.135847,VALID,20.87,VALID,140,VALID,2.1981,
2004-03-07, 01:45:00,VALID,916.891,VALID,0,VALID,88.1387,VALID,-0.0679233,VALID,20.8722,VALID,130,VALID,1.30487,
2004-03-07, 01:46:00,VALID,916.896,VALID,0,VALID,88.1057,VALID,-0.0169808,VALID,20.8746,VALID,154,VALID,1.87686,
2004-03-07, 01:47:00,VALID,916.87,VALID,0,VALID,88.2786,VALID,0,VALID,20.8684,VALID,142,VALID,1.37336,
2004-03-07, 01:48:00,VALID,916.873,VALID,0,VALID,88.2099,VALID,-0.0169808,VALID,20.8555,VALID,148,VALID,2.27474,
2004-03-07, 01:49:00,VALID,916.863,VALID,0,VALID,87.7458,VALID,-0.0169808,VALID,20.8555,VALID,135,VALID,1.88207,
2004-03-07, 01:50:00,VALID,916.853,VALID,0,VALID,87.7814,VALID,0,VALID,20.8714,VALID,122,VALID,1.88761,
2004-03-07, 01:51:00,VALID,916.842,VALID,0,VALID,87.8107,VALID,0,VALID,20.8878,VALID,147,VALID,1.37715,
2004-03-07, 01:52:00,VALID,916.811,VALID,0,VALID,87.7687,VALID,-0.0169808,VALID,20.8808,VALID,152,VALID,1.10728,
2004-03-07, 01:53:00,VALID,916.798,VALID,0,VALID,87.2333,VALID,-0.0339617,VALID,20.8875,VALID,154,VALID,1.11758,
2004-03-07, 01:54:00,VALID,916.798,VALID,0,VALID,87.3147,VALID,-0.0169808,VALID,20.8999,VALID,151,VALID,0.658913,
2004-03-07, 01:55:00,VALID,916.801,VALID,0,VALID,86.6115,VALID,-0.0169808,VALID,20.9201,VALID,141,VALID,1.0456,
2004-03-07, 01:56:00,VALID,916.804,VALID,0,VALID,86.6853,VALID,0,VALID,20.9521,VALID,100,VALID,1.29439,
2004-03-07, 01:57:00,VALID,916.795,VALID,0,VALID,86.3648,VALID,0,VALID,20.9678,VALID,149,VALID,1.69817,
2004-03-07, 01:58:00,VALID,916.791,VALID,0,VALID,86.6611,VALID,-0.0339617,VALID,20.9912,VALID,105,VALID,1.46493,
2004-03-07, 01:59:00,VALID,916.757,VALID,0,VALID,86.4119,VALID,0,VALID,20.9909,VALID,139,VALID,1.97991,
2004-03-07, 02:00:00,VALID,916.748,VALID,0,VALID,85.949,VALID,0.0169808,VALID,20.9936,VALID,77,VALID,2.32475,
2004-03-07, 02:01:00,VALID,916.716,VALID,0,VALID,84.9038,VALID,0,VALID,21.0448,VALID,64,VALID,2.62951,
2004-03-07, 02:02:00,VALID,916.729,VALID,0,VALID,85.3374,VALID,0,VALID,21.1126,VALID,93,VALID,1.97852,
2004-03-07, 02:03:00,VALID,916.699,VALID,0,VALID,84.6177,VALID,-0.0169808,VALID,21.1064,VALID,98,VALID,2.13129,
2004-03-07, 02:04:00,VALID,916.673,VALID,0,VALID,84.5439,VALID,0,VALID,21.1422,VALID,76,VALID,2.25037,
2004-03-07, 02:05:00,VALID,916.656,VALID,0,VALID,83.6423,VALID,0.0169808,VALID,21.2006,VALID,82,VALID,1.31432,
2004-03-07, 02:06:00,VALID,916.648,VALID,0,VALID,83.5444,VALID,-0.0169808,VALID,21.2429,VALID,131,VALID,1.83651,
2004-03-07, 02:07:00,VALID,916.631,VALID,0,VALID,83.4491,VALID,0,VALID,21.2881,VALID,131,VALID,1.35392,
2004-03-07, 02:08:00,VALID,916.638,VALID,0,VALID,84.3328,VALID,0,VALID,21.3013,VALID,78,VALID,0.828683,
2004-03-07, 02:09:00,VALID,916.643,VALID,0,VALID,84.5363,VALID,0,VALID,21.2585,VALID,101,VALID,0.810547,
2004-03-07, 02:10:00,VALID,916.627,VALID,0,VALID,84.68,VALID,0,VALID,21.21,VALID,123,VALID,0.651105,
2004-03-07, 02:11:00,VALID,916.626,VALID,0,VALID,84.741,VALID,0,VALID,21.178,VALID,138,VALID,0.106712,
2004-03-07, 02:12:00,VALID,916.634,VALID,0,VALID,84.7842,VALID,0,VALID,21.1554,VALID,101,VALID,0.31891,
2004-03-07, 02:13:00,VALID,916.656,VALID,0,VALID,84.9686,VALID,0,VALID,21.1422,VALID,85,VALID,0.514205,
2004-03-07, 02:14:00,VALID,916.672,VALID,0,VALID,84.6469,VALID,0,VALID,21.126,VALID,137,VALID,1.36998,
2004-03-07, 02:15:00,VALID,916.688,VALID,0,VALID,84.788,VALID,0,VALID,21.1524,VALID,113,VALID,1.15025,
2004-03-07, 02:16:00,VALID,916.681,VALID,0,VALID,85.0805,VALID,0.0169808,VALID,21.1317,VALID,135,VALID,1.23698,
2004-03-07, 02:17:00,VALID,916.65,VALID,0,VALID,84.6723,VALID,0.0169808,VALID,21.1223,VALID,147,VALID,1.41602,
2004-03-07, 02:18:00,VALID,916.631,VALID,0,VALID,84.8821,VALID,0,VALID,21.1322,VALID,140,VALID,1.19767,
2004-03-07, 02:19:00,VALID,916.629,VALID,0,VALID,85.5205,VALID,0.0169808,VALID,21.1457,VALID,121,VALID,1.23223,
2004-03-07, 02:20:00,VALID,916.646,VALID,0,VALID,85.5129,VALID,0,VALID,21.087,VALID,127,VALID,1.6012,
2004-03-07, 02:21:00,VALID,916.645,VALID,0,VALID,85.7074,VALID,0,VALID,21.0477,VALID,107,VALID,1.57565,
2004-03-07, 02:22:00,VALID,916.614,VALID,0,VALID,84.2031,VALID,0,VALID,21.0291,VALID,131,VALID,0.825747,
2004-03-07, 02:23:00,VALID,916.609,VALID,0,VALID,84.8999,VALID,0,VALID,21.0714,VALID,111,VALID,1.73778,
2004-03-07, 02:24:00,VALID,916.556,VALID,0,VALID,84.184,VALID,0,VALID,21.1067,VALID,81,VALID,1.59691,
2004-03-07, 02:25:00,VALID,916.58,VALID,0,VALID,83.9806,VALID,0,VALID,21.1417,VALID,92,VALID,0.922965,
2004-03-07, 02:26:00,VALID,916.592,VALID,0,VALID,84.6558,VALID,0,VALID,21.1783,VALID,124,VALID,1.00391,
2004-03-07, 02:27:00,VALID,916.6,VALID,0,VALID,84.8326,VALID,0.0339617,VALID,21.1522,VALID,127,VALID,1.58854,
2004-03-07, 02:28:00,VALID,916.59,VALID,0,VALID,85.0093,VALID,0,VALID,21.1295,VALID,139,VALID,1.57622,
2004-03-07, 02:29:00,VALID,916.575,VALID,0,VALID,85.3348,VALID,0.0169808,VALID,21.0935,VALID,119,VALID,2.05799,
2004-03-07, 02:30:00,VALID,916.588,VALID,0,VALID,84.3074,VALID,0,VALID,21.0875,VALID,113,VALID,1.57763,
2004-03-07, 02:31:00,VALID,916.57,VALID,0,VALID,84.418,VALID,-0.0169808,VALID,21.1161,VALID,63,VALID,1.00446,
2004-03-07, 02:32:00,VALID,916.568,VALID,0,VALID,84.3087,VALID,0,VALID,21.1355,VALID,150,VALID,1.48326,
2004-03-07, 02:33:00,VALID,916.547,VALID,0,VALID,84.4409,VALID,0,VALID,21.1522,VALID,156,VALID,1.39234,
2004-03-07, 02:34:00,VALID,916.553,VALID,0,VALID,84.9241,VALID,0,VALID,21.1452,VALID,174,VALID,1.15252,
2004-03-07, 02:35:00,VALID,916.573,VALID,0,VALID,84.9305,VALID,0,VALID,21.1158,VALID,146,VALID,1.89151,
2004-03-07, 02:36:00,VALID,916.6,VALID,0,VALID,85.8041,VALID,0.0339617,VALID,21.0937,VALID,74,VALID,1.17448,
2004-03-07, 02:37:00,VALID,916.615,VALID,0,VALID,85.5396,VALID,-0.0169808,VALID,21.0189,VALID,108,VALID,1.98562,
2004-03-07, 02:38:00,VALID,916.618,VALID,0,VALID,86.23,VALID,0.0169808,VALID,20.9869,VALID,120,VALID,1.29028,
2004-03-07, 02:39:00,VALID,916.618,VALID,0,VALID,86.4475,VALID,0.0339617,VALID,20.932,VALID,137,VALID,1.30774,
2004-03-07, 02:40:00,VALID,916.618,VALID,0,VALID,86.1321,VALID,0,VALID,20.8964,VALID,141,VALID,1.42634,
2004-03-07, 02:41:00,VALID,916.608,VALID,0,VALID,86.1118,VALID,0,VALID,20.9034,VALID,114,VALID,1.39215,
2004-03-07, 02:42:00,VALID,916.607,VALID,0,VALID,85.8295,VALID,0,VALID,20.9128,VALID,143,VALID,1.74009,
2004-03-07, 02:43:00,VALID,916.611,VALID,0,VALID,86.4335,VALID,0,VALID,20.9382,VALID,43,VALID,1.30488,
2004-03-07, 02:44:00,VALID,916.627,VALID,0,VALID,86.4335,VALID,0,VALID,20.9357,VALID,73,VALID,1.45069,
2004-03-07, 02:45:00,VALID,916.612,VALID,0,VALID,86.6878,VALID,0,VALID,20.9196,VALID,69,VALID,1.6819,
2004-03-07, 02:46:00,VALID,916.605,VALID,0,VALID,86.8048,VALID,0,VALID,20.8808,VALID,111,VALID,1.85309,
2004-03-07, 02:47:00,VALID,916.583,VALID,0,VALID,86.9307,VALID,0.0169808,VALID,20.8512,VALID,131,VALID,1.90206,
2004-03-07, 02:48:00,VALID,916.564,VALID,0,VALID,86.6242,VALID,-0.0169808,VALID,20.8423,VALID,126,VALID,1.77253,
2004-03-07, 02:49:00,VALID,916.552,VALID,0,VALID,86.4348,VALID,0,VALID,20.8579,VALID,126,VALID,1.31138,
2004-03-07, 02:50:00,VALID,916.546,VALID,0,VALID,86.3852,VALID,0,VALID,20.8843,VALID,134,VALID,1.19767,
2004-03-07, 02:51:00,VALID,916.537,VALID,0,VALID,86.7743,VALID,0,VALID,20.8838,VALID,110,VALID,1.24746,
2004-03-07, 02:52:00,VALID,916.522,VALID,0,VALID,86.7489,VALID,0,VALID,20.8674,VALID,130,VALID,1.63858,
2004-03-07, 02:53:00,VALID,916.537,VALID,0,VALID,87.0362,VALID,0,VALID,20.845,VALID,137,VALID,1.60063,
2004-03-07, 02:54:00,VALID,916.494,VALID,0,VALID,87.0401,VALID,0,VALID,20.8157,VALID,136,VALID,2.19494,
2004-03-07, 02:55:00,VALID,916.479,VALID,0,VALID,86.9943,VALID,-0.0169808,VALID,20.806,VALID,141,VALID,1.39844,
2004-03-07, 02:56:00,VALID,916.461,VALID,0,VALID,87.4406,VALID,0.0339617,VALID,20.7998,VALID,82,VALID,0.739644,
2004-03-07, 02:57:00,VALID,916.454,VALID,0,VALID,87.3516,VALID,0,VALID,20.7906,VALID,77,VALID,0.739258,
2004-03-07, 02:58:00,VALID,916.434,VALID,0,VALID,86.9231,VALID,0.0169808,VALID,20.7774,VALID,104,VALID,1.69252,
2004-03-07, 02:59:00,VALID,916.426,VALID,0,VALID,87.2232,VALID,0,VALID,20.7863,VALID,70,VALID,1.74518,
2004-03-07, 03:00:00,VALID,916.404,VALID,0,VALID,86.6866,VALID,-0.0339617,VALID,20.81,VALID,103,VALID,2.11395,
2004-03-07, 03:01:00,VALID,916.396,VALID,0,VALID,86.6497,VALID,-0.118866,VALID,20.8439,VALID,119,VALID,1.73958,
2004-03-07, 03:02:00,VALID,916.384,VALID,0,VALID,86.4691,VALID,-0.118866,VALID,20.8668,VALID,79,VALID,1.41462,
2004-03-07, 03:03:00,VALID,916.395,VALID,0,VALID,86.5263,VALID,-0.101885,VALID,20.8956,VALID,102,VALID,1.0516,
2004-03-07, 03:04:00,VALID,916.404,VALID,0,VALID,86.7171,VALID,-0.101885,VALID,20.8923,VALID,75,VALID,1.87553,
2004-03-07, 03:05:00,VALID,916.41,VALID,0,VALID,87.0833,VALID,-0.101885,VALID,20.86,VALID,95,VALID,1.35993,
2004-03-07, 03:06:00,VALID,916.41,VALID,0,VALID,87.0947,VALID,-0.101885,VALID,20.828,VALID,93,VALID,1.82161,
2004-03-07, 03:07:00,VALID,916.354,VALID,0,VALID,87.1812,VALID,-0.118866,VALID,20.8014,VALID,92,VALID,0.848067,
2004-03-07, 03:08:00,VALID,916.329,VALID,0,VALID,87.4546,VALID,-0.101885,VALID,20.7954,VALID,83,VALID,0.232013,
2004-03-07, 03:09:00,VALID,916.303,VALID,0,VALID,87.433,VALID,-0.118866,VALID,20.7758,VALID,64,VALID,1.04403,
2004-03-07, 03:10:00,VALID,916.301,VALID,0,VALID,87.4126,VALID,-0.101885,VALID,20.7529,VALID,78,VALID,1.46456,
2004-03-07, 03:11:00,VALID,916.29,VALID,0,VALID,86.932,VALID,-0.101885,VALID,20.7432,VALID,85,VALID,1.54978,
2004-03-07, 03:12:00,VALID,916.281,VALID,0,VALID,87.0973,VALID,-0.101885,VALID,20.7723,VALID,95,VALID,1.40007,
2004-03-07, 03:13:00,VALID,916.256,VALID,0,VALID,87.2308,VALID,-0.0849042,VALID,20.7631,VALID,84,VALID,1.5173,
2004-03-07, 03:14:00,VALID,916.236,VALID,0,VALID,87.5296,VALID,-0.101885,VALID,20.7564,VALID,106,VALID,0.994284,
2004-03-07, 03:15:00,VALID,916.231,VALID,0,VALID,88.0345,VALID,-0.0679233,VALID,20.7362,VALID,119,VALID,1.15341,
2004-03-07, 03:16:00,VALID,916.216,VALID,0,VALID,87.4406,VALID,0,VALID,20.7099,VALID,107,VALID,1.53163,
2004-03-07, 03:17:00,VALID,916.23,VALID,0,VALID,87.6097,VALID,-0.0169808,VALID,20.7031,VALID,82,VALID,1.23047,
2004-03-07, 03:18:00,VALID,916.229,VALID,0,VALID,87.5169,VALID,0,VALID,20.6964,VALID,79,VALID,1.16597,
2004-03-07, 03:19:00,VALID,916.271,VALID,0,VALID,87.9582,VALID,0,VALID,20.6932,VALID,57,VALID,1.50164,
2004-03-07, 03:20:00,VALID,916.244,VALID,0,VALID,87.9988,VALID,0.0169808,VALID,20.6878,VALID,87,VALID,2.23571,
2004-03-07, 03:21:00,VALID,916.267,VALID,0,VALID,88.3485,VALID,-0.0169808,VALID,20.6547,VALID,58,VALID,1.88969,
2004-03-07, 03:22:00,VALID,916.252,VALID,0,VALID,88.2875,VALID,0,VALID,20.6189,VALID,79,VALID,1.79439,
2004-03-07, 03:23:00,VALID,916.242,VALID,0,VALID,88.3028,VALID,0,VALID,20.603,VALID,113,VALID,1.85398,
2004-03-07, 03:24:00,VALID,916.214,VALID,0,VALID,88.2761,VALID,-0.0169808,VALID,20.6097,VALID,119,VALID,1.49618,
2004-03-07, 03:25:00,VALID,916.228,VALID,0,VALID,88.2227,VALID,0,VALID,20.6162,VALID,106,VALID,1.47949,
2004-03-07, 03:26:00,VALID,916.231,VALID,0,VALID,88.3803,VALID,0,VALID,20.6057,VALID,91,VALID,1.11071,
2004-03-07, 03:27:00,VALID,916.226,VALID,0,VALID,88.2405,VALID,-0.0169808,VALID,20.6,VALID,52,VALID,1.5169,
2004-03-07, 03:28:00,VALID,916.255,VALID,0,VALID,88.4668,VALID,0.0169808,VALID,20.6065,VALID,65,VALID,1.43611,
2004-03-07, 03:29:00,VALID,916.236,VALID,0,VALID,88.182,VALID,-0.0169808,VALID,20.5809,VALID,89,VALID,1.18388,
2004-03-07, 03:30:00,VALID,916.25,VALID,0,VALID,87.9073,VALID,-0.0169808,VALID,20.5968,VALID,101,VALID,1.28398,
2004-03-07, 03:31:00,VALID,916.252,VALID,0,VALID,87.6186,VALID,-0.0169808,VALID,20.6068,VALID,86,VALID,2.08685,
2004-03-07, 03:32:00,VALID,916.273,VALID,0,VALID,87.6275,VALID,-0.0169808,VALID,20.6356,VALID,99,VALID,1.30694,
2004-03-07, 03:33:00,VALID,916.266,VALID,0,VALID,87.8259,VALID,0,VALID,20.6485,VALID,129,VALID,1.85298,
2004-03-07, 03:34:00,VALID,916.282,VALID,0,VALID,87.784,VALID,0,VALID,20.6547,VALID,111,VALID,1.94978,
2004-03-07, 03:35:00,VALID,916.272,VALID,0,VALID,87.845,VALID,0,VALID,20.6679,VALID,82,VALID,1.16661,
2004-03-07, 03:36:00,VALID,916.264,VALID,0,VALID,85.2382,VALID,-0.0169808,VALID,20.6816,VALID,81,VALID,2.20332,
2004-03-07, 03:37:00,VALID,916.293,VALID,0,VALID,85.1962,VALID,0,VALID,20.7939,VALID,111,VALID,1.63186,